Regional Weather Roundup
Issued by NWS

Home | Current Version | Previous Version | Graphics & Text | Print | Product List | Glossary On
Versions: 1 2 3 4 5 6 7 8 9 10 11 12 13 14 15 16 17 18 19 20 21 22 23 24 25 26 27 28 29 30 31 32 33 34 35 36 37 38 39 40 41 42 43 44 45 46 47 48 49 50
996
ASUS43 KDMX 210406
RWRIA

WEATHER ROUNDUP FOR IOWA
NATIONAL WEATHER SERVICE DES MOINES IA
1100 PM CDT THU JUL 20 2017

NOTE: "FAIR" INDICATES FEW OR NO CLOUDS BELOW 12,000 FEET WITH NO
SIGNIFICANT WEATHER AND/OR OBSTRUCTIONS TO VISIBILITY.

* - THESE STATIONS ARE NOT NWS STATIONS...THUS NOT UNDER NWS
QUALITY CONTROL.  THEY ALSO DO NOT REPORT WEATHER SUCH
AS PRECIPITATION OR FOG.

IAZ001>003-012>014-020>022-031>034-043>046-210500-
   NORTHWEST IOWA

CITY           SKY/WX    TMP DP  RH WIND       PRES   REMARKS
CARROLL *      CLOUDY    72  70  94 W6        29.91S
CHEROKEE *     CLOUDY    75  72  90 CALM      29.92F
DENISON *      MOCLDY    72  70  94 CALM      29.93F
ORANGE CITY *  CLOUDY    77  73  88 CALM      29.94F
SHELDON *      CLEAR     75  73  94 SE5       29.92F
SIOUX CITY     CLEAR     74  69  85 SE5       29.90F
SPENCER        PTCLDY    75  72  90 NE7       29.94F
STORM LAKE *   CLOUDY    72  68  88 CALM      29.94F
$$

IAZ055>058-069>071-079>083-090>094-210500-
   SOUTHWEST IOWA

CITY           SKY/WX    TMP DP  RH WIND       PRES   REMARKS
ATLANTIC *     CLOUDY    79  70  73 SE5       29.92R HX  81
AUDUBON *      CLOUDY    75  70  83 CALM      29.93R
CLARINDA *     CLEAR     81  79  94 S3        29.92F HX  89
COUNCIL BLFS * CLOUDY    82  81  94 SE6       29.90F HX  95
CRESTON *      PTCLDY    82  75  78 NE10      29.97R HX  89
HARLAN  *      MOCLDY    75  70  83 CALM      29.95S
LAMONI         CLOUDY    84  79  85 SE3       29.94S HX  96
RED OAK *      PTCLDY    82  79  89 NE5       29.91F HX  93
SHENANDOAH *   PTCLDY    84  77  79 S6        29.90F HX  94
$$

IAZ047>049-059>061-072>074-084-210500-
   CENTRAL IOWA

CITY           SKY/WX    TMP DP  RH WIND       PRES   REMARKS
AMES           TSTM      71  71 100 E7        29.92F
ANKENY *       LGT RAIN  73  72  94 SE12      29.91F
BOONE *        CLOUDY    72  68  88 SE9G15    29.94F
CHARITON *     CLOUDY    84  79  84 CALM      29.96R HX  96
DES MOINES     TSTM      78  72  81 NE12      29.93S HX  80
GRINNELL*      CLOUDY    80  77  90 E9        29.97S HX  87
KNOXVILLE *    CLOUDY    86  79  79 CALM      29.94R HX  99
MARSHALLTOWN   TSTM      72  70  93 W30G43    29.98R FOG
NEWTON *       CLOUDY    73  70  88 NW20G30   30.02R FOG
PELLA *        CLOUDY    85  78  79 CALM      29.95S HX  95
$$

IAZ004>006-015-016-023>025-035-036-210500-
   NORTH CENTRAL IOWA

CITY           SKY/WX    TMP DP  RH WIND       PRES   REMARKS
ALGONA *       CLOUDY    79  77  94 SE7       29.97R HX  83
ESTHERVILLE    CLOUDY    73  73 100 CALM      29.95F
FORT DODGE *   CLOUDY    73  68  83 E8        29.96R
MASON CITY     CLOUDY    73  71  93 E5        29.99R
FOREST CITY *    N/A     77  72  83 CALM      29.97R
WEBSTER CITY * CLOUDY    73  72  94 MISG      29.93S
IOWA FALLS *   HVY RAIN  81  73  76 E7        30.00R HX  86
$$

IAZ007>011-017>019-026>030-037>042-050>054-066-210500-
   NORTHEAST IOWA

CITY           SKY/WX    TMP DP  RH WIND       PRES   REMARKS
CEDAR RAPIDS   TSTM      75  72  90 S15G24    29.97R FOG
CHARLES CITY * PTCLDY    73  73 100 SE5       29.99R
CLINTON *      CLOUDY    77  68  73 SW29G35   30.00R
DECORAH *      CLOUDY    73  70  88 E7        29.97F
DUBUQUE        CLOUDY    75  73  93 NE8       29.98F
MONTICELLO *   CLOUDY    77  75  94 S5        29.99R
OELWEIN *      CLOUDY    73  72  94 E5        29.99R
WATERLOO       CLOUDY    77  71  82 E7        29.94S
$$

IAZ064-065-067-068-078-210500-
   EAST CENTRAL IOWA

CITY           SKY/WX    TMP DP  RH WIND       PRES   REMARKS
DAVENPORT      TSTM      74  64  71 E13G23    29.96F
IOWA CITY      TSTM      79  70  74 S12G32    29.98R HX  82
MUSCATINE *    CLOUDY    73  72  94 NE3       29.95S
QUAD CITIES    TSTM      73  68  84 E15       29.93F
$$

IAZ062-063-075>077-085>089-095>099-210500-
   SOUTHEAST IOWA

CITY           SKY/WX    TMP DP  RH WIND       PRES   REMARKS
BURLINGTON     CLOUDY    80  69  69 NE6       29.95F HX  83
FAIRFIELD *    CLOUDY    77  66  69 E5        29.93F
FORT MADISON * MOCLDY    79  72  78 CALM      29.96F HX  82
KEOKUK *       CLOUDY    82  73  74 N5        29.94F HX  88
OSKALOOSA *      N/A     79  70  73 SE6       29.94S HX  81
CENTERVILLE *    N/A     81  77  89 CALM      29.97S HX  88
OTTUMWA        CLOUDY    83  70  64 SE8       29.93F HX  87
WASHINGTON *   CLOUDY    75  72  88 NE10      29.96R
$$

ABBREVIATIONS USED IN REMARKS
   TC - TEMPERATURES IN CELSIUS
  WCI - WIND CHILL INDEX
   HX - HEAT INDEX
  VSB - VISIBILITY
$$





USA.gov is the U.S. government's official web portal to all federal, state and local government web resources and services.